Location: *
(45.4590°N, 16.3650°E)
Time: 20:36:06
(UTC+00:00)

Meteor 2-10 Rocket - Pass Details

Date: 17 January 2020
Orbit: 733 x 885 km, 81.2° (Epoch: 16 February)

Event Time Altitude Azimuth Distance (km) Brightness Sun altitude
Rises 17:13:59 0° 356° (N) 3,385 6.7 -16.2°
Reaches altitude 10° 17:16:42 10° 6° (N) 2,421 5.9 -16.7°
Maximum altitude 17:21:34 32° 69° (ENE) 1,344 4.2 -17.5°
Enters shadow 17:22:28 30° 89° (E) 1,387 4.3 -17.7°
